Погода в Верхнеимбатске

Погода в Верхнеимбатске : погода сейчас, прогноз погоды и архив. Всё, что Вы хотите узнать о погоде в Верхнеимбатске!

Хотите узнать прогноз погоды в Верхнеимбатске? Тогда Вам сюда: Погода в Верхнеимбатске

Поиск расширенной информации на нашем сайте:

Другие новости

Новости СМИ2

Главная страница сайта

Новости сайта

03.07.2017

Напоминаем, что на нашем специализированном сайте Метеоцентр.Азия вы можете получить высокодетализированные автоматические прогнозы погоды по пунктам России, СНГ и мира в авиационном формате (включающие направление и скорость ветра, видимость, явления погоды, количество и форму облачности, нижнюю и верхнюю границу облачности).


Погода в Верхнеимбатске - сегодня

Время (UTC), дата Ветер
(°,м/с) 
Видим.   Явления Облачность Т
(°С)
Тd
(°С)
f(%) Тe
(°С)
Pmin
(гПа)
dP
(гПа)
Po
(мм)
O2
(г/м3)
Тmin Tmax R s Состояние
почвы
00 21.02.18 300 (СЗ) н/о    ясно 
-30 -32.4 80 -31  1027.6  0.9  766  349  -30      89  равномерный
сухой снег
100% 
03 21.02.18 270 (З) 20000 м    3/0 верхняя 
[Cs]
-30.5 -33.6 74 -34  1028.4  0.8  766  350  -31.1         
06 21.02.18 270 (З) 20000 м    ясно 
-28.1 -30.5 80 -32  1029.5  1.1  767  347           
09 21.02.18 270 (З) 20000 м    ясно 
-23.6 -26.2 79 -27  1030  0.6  768  340           
12 21.02.18 280 (З) н/о    ясно 
-24.6 -27.2 79 -28  1030.3  0.3  768  342    -22.8       
15 21.02.18 290 (З) н/о    ясно 
-27 -29.5 79 -28  1030  -0.3  768  345           
18 21.02.18 250 (З) н/о    ясно 
-30.5 -33 79 -34  1029.7  -0.4  767  350           
21 21.02.18 020 (С) н/о    ясно 
-33.8 -36.8 74 -35  1019.9  767  355           
00 22.02.18 тихо ()   н/о    ясно 
-35 -38 74 -35  1029  -0.9  767  356  -36.1      89  равномерный
сухой снег
100% 
03 22.02.18 тихо ()   20000 м    ясно 
-35.5 -38.4 75 -36  1028.7  -0.3  767  357  -37         
06 22.02.18 210 (ЮЗ) 20000 м    ясно 
-29.6 -32.6 75 -30  1027.9  -0.6  766  348           
09 22.02.18 тихо ()   20000 м    ясно 
-23.7 -27.7 70 -24  1026  -1.8  765  339           
12 22.02.18 190 (Ю) н/о    ясно 
-25.7 -28.8 75 -26  1024.2  -1.8  763  341    -23       
15 22.02.18 260 (З) н/о    ясно 
-29.3 -31.8 79 -30  1023  -1.3  762  346           
18 22.02.18 тихо ()   н/о    ясно 
-32.1 -34.4 80 -32  1021.9  -1.1  762  350           
21 22.02.18 тихо ()   н/о    ясно 
-33.7 -35.9 80 -34  1021.1  -0.9  761  352           
00 23.02.18 020 (С) н/о    ясно 
-35.9 -38.7 75 -37  1020.5  -0.6  760  355  -35.9      89  равномерный
сухой снег
100% 
03 23.02.18 тихо ()   20000 м    ясно 
-36 -39 74 -36  1019.9  -0.6  760  355  -36.8         
06 23.02.18 150 (ЮВ) 20000 м    3/0 средняя 
[Ac lent]
-26.6 -30.4 70 -27  1018.8  -0.8  759  341           
09 23.02.18 140 (ЮВ) 20000 м    1/0 средняя 
[Ac lent]
-20.1 -24.2 70 -20  1017.8  -0.9  759  332           
12 23.02.18 010 (С) 20000 м    3/0 средняя, верхняя 
[Ac lent|Ci fib]
-22.8 -25.3 80 -23  1017.4  -0.5  758  335    -17.8       
15 23.02.18 090 (В) н/о    ясно 
-25.4 -27.8 80 -26  1017.1  -0.3  758  339           
18 23.02.18 080 (В) н/о    3/0 средняя 
[Ac trans]
-22.8 -25.3 80 -23  1017.1  758  335           
21 23.02.18 050 (СВ) н/о    ясно 
-20.7 -23.2 80 -24  1016.6  -0.4  758  332           
00 24.02.18 060 (СВ) н/о    ясно 
-21.7 -24.2 80 -25  1016.7  0.1  758  333  -26      89  равномерный
сухой снег
100% 
Время (UTC), дата Ветер
(°,м/с) 
Видим.   Явления Облачность Т
(°С)
Тd
(°С)
f(%) Тe
(°С)
Pmin
(гПа)
dP
(гПа)
Po
(мм)
O2
(г/м3)
Тmin Tmax R s Состояние
почвы

Для получения пояснительной информации подведите курсор к названию столбца.

ПОГОДА в Верхнеимбатске - архив

Всё, что Вы хотите узнать о погоде в Верхнеимбатске - удобно и подробно!

Выберите нужную дату (начиная с 1 января 2015* года) и нажмите кнопку "Найти".
Будут отображены архивные сводки погоды по пункту Верхнеимбатск, начиная с указанной даты.


Отображать данные в формате CSV (для использования в таблицах Excel)


Внимание! Наш архив погоды предназначен исключительно для личного некоммерческого использования в познавательных целях. Если Вам необходимы официальные справки о состоянии погоды (для производственных, юридических, коммерческих и т.п. целей), обращайтесь в органы Росгидромета.

*Примечание: данная дата относится к архиву по метеостанциям СССР (Россия, СНГ, Балтия).
Архив по метеостанциям Зарубежной Европы и Азии (кроме Китая) хранится 10 дней, по другим регионам земного шара (Китай, Африка, Америка, Австралия, Океания) - 1 день.

Верхнеимбатск - район местоположения метеостанции


Название, широта, долгота, высота метеостанции:
Верхнеимбатск 63.2°ш. 87.9°д. 46 м над ур. моря [Российская Федерация]

Дополнительная информация

В oтличие oт бoльшинства пoгoдных сайтoв мы публикуем пoдрoбную метеoинфoрмацию в детальнoм прoфессиoнальнoм фoрмате.

Характеристики температуры и влажнoсти вoздуха измеряются на высoте 2 м в тени вдали oт зданий и деревьев.
Скoрoсть ветра измеряется на высoте 10 м (на урoвне рoста челoвека скoрoсть ветра ниже в 1.5-2 раза). Если метеoстанция нахoдится в гoрoде или в лесу, тo скoрoсть ветра занижена на 2-4 м/с пo сравнению с oткрытым местoм. Скoрoсть ветра над акватoриями крупных рек и oзёр, а также на вершинах хoлмoв на 2-5 м/с выше, чем в oбычных услoвиях.
Атмoсфернoе давление в разных тoчках местнoсти мoжет значительнo oтличаться oт давления на метеoстанции, в зависимoсти oт услoвий рельефа (при пoдъёме на 10 м давление пoнижается примернo на 1 мм рт.ст.).